Retour au catalogue

SL-8 R/B

ActifPO
NORAD 11309·ROCKET BODY·🇷🇺 Russia

Lancé Mar 21, 1979 depuis Plesetsk Cosmodrome

Loading…

Prochains Passages (prochaines 24 heures)

TLE

FraisSource: Space-Track

Époque: Sep 14, 2026, 09:43 UTC

1 11309U 79026B   26257.40496919  .00000127  00000-0  11180-3 0  9996
2 11309  82.9684  44.9218 0018694 349.0759  10.9989 13.77558967384645

Suivez SL-8 R/B en temps réel avec AllMySat

Download on the App Store